FW2664 Weather Reports


Display with metric or nautical units.
time (UTC)temp
F
wind
direction
speed
MPH
gust
MPH
rain 1hr
in
rain 24hr
in
rain mn
in
humidity
%
barometer
mb
20260904204048 99 93 3.0 3.0 0.00 0.00 0.00 43 1012.5
20260904203544 99 333 0.0 5.0 0.00 0.00 0.00 44 1012.6
20260904203040 99 96 3.0 4.0 0.00 0.00 0.00 44 1012.8
20260904202537 100 92 3.0 6.0 0.00 0.00 0.00 43 1012.8
20260904202033 100 3 2.0 5.0 0.00 0.00 0.00 44 1012.7
20260904201533 98 14 2.0 4.0 0.00 0.00 0.00 46 1012.9
20260904201028 98 58 4.0 9.0 0.00 0.00 0.00 44 1013.0
20260904200526 98 108 4.0 5.0 0.00 0.00 0.00 43 1013.1
20260904200022 99 109 7.0 9.0 0.00 0.00 0.00 42 1013.1
20260904195520 98 326 3.0 6.0 0.00 0.00 0.00 44 1013.2
20260904195020 98 103 1.0 4.0 0.00 0.00 0.00 45 1013.4
20260904194515 99 24 2.0 4.0 0.00 0.00 0.00 44 1013.5
20260904194009 98 95 2.0 6.0 0.00 0.00 0.00 45 1013.4
20260904193505 98 6 2.0 5.0 0.00 0.00 0.00 48 1013.5
20260904193001 96 110 2.0 3.0 0.00 0.00 0.00 48 1013.6
20260904192500 97 339 2.0 5.0 0.00 0.00 0.00 49 1013.6
20260904191956 97 34 1.0 2.0 0.00 0.00 0.00 48 1013.8
20260904191452 97 102 2.0 4.0 0.00 0.00 0.00 47 1014.0
20260904190949 97 65 2.0 4.0 0.00 0.00 0.00 47 1013.9
20260904190444 98 335 2.0 4.0 0.00 0.00 0.00 45 1013.9
20260904185940 99 272 2.0 3.0 0.00 0.00 0.00 45 1014.1
20260904185436 100 143 3.0 3.0 0.00 0.00 0.00 44 1013.9
20260904184931 101 208 1.0 2.0 0.00 0.00 0.00 44 1014.0
20260904184431 101 119 0.0 3.0 0.00 0.00 0.00 45 1013.9
20260904183926 101 257 2.0 3.0 0.00 0.00 0.00 45 1014.1
20260904183421 101 179 2.0 2.0 0.00 0.00 0.00 45 1014.1
20260904182917 100 279 0.0 5.0 0.00 0.00 0.00 46 1014.3
20260904182412 99 110 0.0 2.0 0.00 0.00 0.00 43 1014.3
20260904181907 99 49 2.0 4.0 0.00 0.00 0.00 45 1014.3
20260904181402 99 39 2.0 4.0 0.00 0.00 0.00 47 1014.1
20260904180857 99 330 0.0 2.0 0.00 0.00 0.00 44 1014.4
20260904180352 99 117 2.0 6.0 0.00 0.00 0.00 45 1014.4
20260904175851 100 84 0.0 6.0 0.00 0.00 0.00 45 1014.6
20260904175351 99 136 0.0 4.0 0.00 0.00 0.00 48 1014.6
20260904174850 98 59 4.0 4.0 0.00 0.00 0.00 47 1014.5
20260904174346 98 103 2.0 7.0 0.00 0.00 0.00 48 1014.7
20260904173842 98 102 4.0 5.0 0.00 0.00 0.00 46 1014.8
20260904173337 99 103 2.0 5.0 0.00 0.00 0.00 47 1014.8
20260904172833 99 351 1.0 2.0 0.00 0.00 0.00 49 1014.9
20260904172332 98 75 2.0 6.0 0.00 0.00 0.00 48 1014.9
20260904171827 98 94 4.0 4.0 0.00 0.00 0.00 48 1015.0
20260904171323 98 19 1.0 2.0 0.00 0.00 0.00 49 1015.1
20260904170819 98 83 1.0 4.0 0.00 0.00 0.00 49 1015.1
20260904170314 98 202 0.0 4.0 0.00 0.00 0.00 49 1015.3
20260904165814 98 60 2.0 3.0 0.00 0.00 0.00 49 1015.1
20260904165313 98 89 2.0 3.0 0.00 0.00 0.00 49 1015.4
20260904164808 98 134 3.0 3.0 0.00 0.00 0.00 50 1015.2
20260904164304 97 229 1.0 4.0 0.00 0.00 0.00 52 1015.3
20260904163800 97 308 0.0 2.0 0.00 0.00 0.00 53 1015.3
20260904163300 98 231 1.0 3.0 0.00 0.00 0.00 52 1015.2
20260904162759 97 243 0.0 3.0 0.00 0.00 0.00 54 1015.3
20260904162254 96 285 1.0 4.0 0.00 0.00 0.00 54 1015.3
20260904161750 96 219 0.0 2.0 0.00 0.00 0.00 55 1015.5
20260904161249 95 284 2.0 4.0 0.00 0.00 0.00 55 1015.5
20260904160745 95 305 2.0 3.0 0.00 0.00 0.00 57 1015.6
20260904160241 94 221 1.0 4.0 0.00 0.00 0.00 57 1015.8
20260904155741 94 296 2.0 4.0 0.00 0.00 0.00 56 1015.7
20260904155240 94 230 3.0 4.0 0.00 0.00 0.00 54 1015.7
20260904154738 94 279 3.0 3.0 0.00 0.00 0.00 55 1015.8
20260904154234 93 62 1.0 3.0 0.00 0.00 0.00 59 1015.7
20260904153729 94 219 4.0 4.0 0.00 0.00 0.00 56 1015.7
20260904153225 93 297 1.0 3.0 0.00 0.00 0.00 59 1015.5
20260904152721 93 225 2.0 3.0 0.00 0.00 0.00 58 1015.5
20260904152222 92 230 1.0 3.0 0.00 0.00 0.00 62 1015.7
20260904151716 91 180 1.0 3.0 0.00 0.00 0.00 62 1015.6
20260904151215 91 231 2.0 4.0 0.00 0.00 0.00 63 1015.6
20260904150712 92 139 1.0 3.0 0.00 0.00 0.00 64 1015.7
20260904150207 92 243 0.0 2.0 0.00 0.00 0.00 64 1015.7
20260904145705 92 275 0.0 3.0 0.00 0.00 0.00 62 1015.6
20260904145200 91 95 0.0 2.0 0.00 0.00 0.00 65 1015.7
20260904144656 91 255 0.0 2.0 0.00 0.00 0.00 66 1015.7
20260904144152 91 229 2.0 3.0 0.00 0.00 0.00 64 1015.6
20260904143647 90 161 2.0 3.0 0.00 0.00 0.00 64 1015.6
20260904143143 90 330 1.0 2.0 0.00 0.00 0.00 66 1015.6
20260904142640 91 226 2.0 3.0 0.00 0.00 0.00 64 1015.5
20260904142135 91 112 2.0 2.0 0.00 0.00 0.00 65 1015.5
20260904141630 90 137 1.0 2.0 0.00 0.00 0.00 68 1015.6
20260904141126 89 117 0.0 2.0 0.00 0.00 0.00 69 1015.5
20260904140622 89 66 0.0 2.0 0.00 0.00 0.00 70 1015.5
20260904140121 88 86 2.0 3.0 0.00 0.00 0.00 73 1015.6
20260904135620 87 37 1.0 2.0 0.00 0.00 0.00 74 1015.5
20260904135117 87 138 1.0 2.0 0.00 0.00 0.00 73 1015.5
20260904134612 87 60 2.0 4.0 0.00 0.00 0.00 74 1015.5
20260904134111 86 93 2.0 4.0 0.00 0.00 0.00 76 1015.3
20260904133606 86 81 2.0 3.0 0.00 0.00 0.00 77 1015.4
20260904133102 85 52 2.0 3.0 0.00 0.00 0.00 77 1015.5
20260904132602 84 42 2.0 3.0 0.00 0.00 0.00 79 1015.5
20260904132057 84 154 0.0 2.0 0.00 0.00 0.00 80 1015.4
20260904131556 83 97 2.0 2.0 0.00 0.00 0.00 80 1015.5
20260904131052 84 39 3.0 5.0 0.00 0.00 0.00 79 1015.5
20260904130552 84 67 3.0 4.0 0.00 0.00 0.00 78 1015.4
20260904130046 85 62 3.0 4.0 0.00 0.00 0.00 77 1015.3
20260904125543 84 64 2.0 3.0 0.00 0.00 0.00 78 1015.3
20260904125043 84 71 1.0 4.0 0.00 0.00 0.00 79 1015.4
20260904124539 84 80 0.0 2.0 0.00 0.00 0.00 80 1015.4
20260904124035 83 48 2.0 3.0 0.00 0.00 0.00 82 1015.4
20260904123534 83 9 2.0 3.0 0.00 0.00 0.00 83 1015.3
20260904123030 81 52 2.0 3.0 0.00 0.00 0.00 86 1015.2
20260904122530 80 104 1.0 3.0 0.00 0.00 0.00 88 1015.3
20260904122025 79 107 2.0 3.0 0.00 0.00 0.00 93 1015.0
20260904121521 78 104 1.0 3.0 0.00 0.00 0.00 96 1015.2
20260904121017 77 30 2.0 2.0 0.00 0.00 0.00 96 1015.2
20260904120513 77 13 1.0 2.0 0.00 0.00 0.00 96 1015.1
20260904120008 76 15 1.0 2.0 0.00 0.00 0.00 96 1015.0
20260904115503 76 74 1.0 2.0 0.00 0.00 0.00 96 1014.9
20260904115002 76 72 0.0 2.0 0.00 0.00 0.00 96 1014.9
20260904114458 76 69 0.0 2.0 0.00 0.00 0.00 96 1014.8
20260904113953 75 57 0.0 2.0 0.00 0.00 0.00 96 1014.8
20260904113452 76 58 0.0 2.0 0.00 0.00 0.00 96 1014.7
20260904112951 76 53 0.0 2.0 0.00 0.00 0.00 96 1014.6
20260904112447 76 71 1.0 2.0 0.00 0.00 0.00 96 1014.6
20260904111943 76 50 0.0 2.0 0.00 0.00 0.00 96 1014.7
20260904111438 76 63 0.0 2.0 0.00 0.00 0.00 96 1014.4
20260904110934 76 83 1.0 2.0 0.00 0.00 0.00 96 1014.4
20260904110433 76 71 1.0 2.0 0.00 0.00 0.00 96 1014.5
20260904105928 76 73 2.0 2.0 0.00 0.00 0.00 96 1014.4
20260904105423 76 30 1.0 2.0 0.00 0.00 0.00 96 1014.3
20260904104918 76 44 1.0 2.0 0.00 0.00 0.00 96 1014.2
20260904104418 76 89 0.0 2.0 0.00 0.00 0.00 95 1014.2
20260904103915 76 64 1.0 2.0 0.00 0.00 0.00 96 1014.2
20260904103410 77 24 1.0 2.0 0.00 0.00 0.00 96 1014.1
20260904102906 76 54 1.0 2.0 0.00 0.00 0.00 95 1014.0
20260904102401 76 38 1.0 2.0 0.00 0.00 0.00 95 1014.0
20260904101857 77 72 1.0 2.0 0.00 0.00 0.00 95 1014.0
20260904101354 77 83 1.0 2.0 0.00 0.00 0.00 95 1014.2
20260904100849 77 60 1.0 2.0 0.00 0.00 0.00 95 1013.9
20260904100345 77 45 1.0 2.0 0.00 0.00 0.00 95 1014.0
20260904095845 77 80 1.0 2.0 0.00 0.00 0.00 95 1014.0
20260904095339 77 92 0.0 2.0 0.00 0.00 0.00 95 1014.1
20260904094834 77 89 1.0 2.0 0.00 0.00 0.00 95 1014.1
20260904094330 77 50 0.0 2.0 0.00 0.00 0.00 95 1014.0
20260904093827 77 66 1.0 2.0 0.00 0.00 0.00 95 1014.2
20260904093326 77 79 2.0 2.0 0.00 0.00 0.00 94 1014.0
20260904092821 77 84 2.0 2.0 0.00 0.00 0.00 94 1013.9
20260904092318 77 72 1.0 2.0 0.00 0.00 0.00 94 1014.1
20260904091814 77 60 2.0 3.0 0.00 0.00 0.00 94 1013.9
20260904091314 77 61 1.0 2.0 0.00 0.00 0.00 94 1014.0
20260904090809 77 60 1.0 2.0 0.00 0.00 0.00 94 1013.9
20260904090306 77 52 1.0 2.0 0.00 0.00 0.00 94 1013.9
20260904085800 77 92 0.0 2.0 0.00 0.00 0.00 94 1013.9
20260904085255 77 93 1.0 2.0 0.00 0.00 0.00 94 1014.1
20260904084750 77 68 2.0 2.0 0.00 0.00 0.00 93 1013.9
20260904084246 77 68 2.0 2.0 0.00 0.00 0.00 93 1013.9
20260904083742 77 56 1.0 2.0 0.00 0.00 0.00 93 1014.0
20260904083239 77 67 2.0 2.0 0.00 0.00 0.00 93 1013.9
20260904082738 77 64 1.0 2.0 0.00 0.00 0.00 93 1013.9
20260904082233 78 61 1.0 2.0 0.00 0.00 0.00 93 1013.8
20260904081729 77 66 2.0 2.0 0.00 0.00 0.00 93 1013.9
20260904081224 78 63 1.0 2.0 0.00 0.00 0.00 92 1013.8
20260904080720 78 46 0.0 2.0 0.00 0.00 0.00 92 1013.9
20260904080216 78 81 0.0 2.0 0.00 0.00 0.00 92 1013.7
20260904075712 78 68 1.0 2.0 0.00 0.00 0.00 92 1013.6
20260904075207 78 60 2.0 2.0 0.00 0.00 0.00 92 1013.6
20260904074706 78 45 1.0 2.0 0.00 0.00 0.00 91 1013.6
20260904074200 78 53 0.0 2.0 0.00 0.00 0.00 91 1013.7
20260904073656 78 64 0.0 2.0 0.00 0.00 0.00 91 1013.5
20260904073152 78 77 2.0 2.0 0.00 0.00 0.00 91 1013.7
20260904072648 78 83 1.0 2.0 0.00 0.00 0.00 91 1013.9
20260904072148 78 57 1.0 2.0 0.00 0.00 0.00 91 1013.8
20260904071644 79 75 1.0 2.0 0.00 0.00 0.00 90 1013.8
20260904071138 79 51 1.0 2.0 0.00 0.00 0.00 90 1013.8
20260904070637 79 73 0.0 2.0 0.00 0.00 0.00 90 1013.7
20260904070132 79 86 1.0 2.0 0.00 0.00 0.00 90 1013.7
20260904065632 79 51 2.0 2.0 0.00 0.00 0.00 90 1013.8
20260904065129 79 62 1.0 2.0 0.00 0.00 0.00 90 1013.7
20260904064624 79 55 1.0 2.0 0.00 0.00 0.00 89 1013.9
20260904064124 79 76 1.0 2.0 0.00 0.00 0.00 89 1014.1
20260904063620 80 86 0.0 2.0 0.00 0.00 0.00 89 1013.8
20260904063116 80 72 0.0 2.0 0.00 0.00 0.00 89 1013.8
20260904062612 80 76 1.0 2.0 0.00 0.00 0.00 89 1014.1
20260904062107 80 81 0.0 2.0 0.00 0.00 0.00 88 1013.9
20260904061603 80 73 0.0 2.0 0.00 0.00 0.00 88 1013.8
20260904061059 81 47 0.0 2.0 0.00 0.00 0.00 88 1014.1
20260904060556 81 75 0.0 2.0 0.00 0.00 0.00 88 1014.0
20260904060052 81 53 1.0 2.0 0.00 0.00 0.00 87 1013.9
20260904055551 81 61 1.0 2.0 0.00 0.00 0.00 87 1014.0
20260904055047 81 60 2.0 2.0 0.00 0.00 0.00 88 1014.0
20260904054542 81 65 1.0 2.0 0.00 0.00 0.00 89 1013.8
20260904054038 80 40 0.0 3.0 0.00 0.00 0.00 89 1013.9
20260904053538 80 54 0.0 2.0 0.00 0.00 0.00 88 1014.1
20260904053033 80 89 0.0 2.0 0.00 0.00 0.00 87 1014.1
20260904052530 80 67 0.0 3.0 0.00 0.00 0.00 87 1014.1
20260904052025 80 46 1.0 2.0 0.00 0.00 0.00 86 1014.2
20260904051522 80 63 0.0 2.0 0.00 0.00 0.00 86 1014.1
20260904051020 80 86 0.0 2.0 0.00 0.00 0.00 85 1014.1
20260904050517 81 53 1.0 2.0 0.00 0.00 0.00 85 1014.2
20260904050013 81 52 1.0 2.0 0.00 0.00 0.00 84 1014.1
20260904045508 81 57 0.0 2.0 0.00 0.00 0.00 84 1014.1
20260904045002 81 63 1.0 2.0 0.00 0.00 0.00 83 1014.0
20260904044458 81 77 0.0 2.0 0.00 0.00 0.00 82 1014.2
20260904043954 81 53 2.0 2.0 0.00 0.00 0.00 82 1014.1
20260904043451 81 70 2.0 3.0 0.00 0.00 0.00 83 1014.2
20260904042946 82 56 1.0 2.0 0.00 0.00 0.00 83 1014.2
20260904042443 82 143 0.0 2.0 0.00 0.00 0.00 82 1014.0
20260904041937 82 72 2.0 2.0 0.00 0.00 0.00 81 1014.2
20260904041433 82 84 0.0 2.0 0.00 0.00 0.00 81 1014.1
20260904040929 82 67 1.0 2.0 0.00 0.00 0.00 81 1014.3
20260904040429 82 64 1.0 2.0 0.00 0.00 0.00 81 1014.2
20260904035925 83 38 0.0 2.0 0.00 0.00 0.00 80 1014.2
20260904035421 83 57 0.0 3.0 0.00 0.00 0.00 80 1014.4
20260904034920 83 39 1.0 2.0 0.00 0.00 0.00 80 1014.3
20260904034415 83 74 2.0 2.0 0.00 0.00 0.00 79 1014.4
20260904033911 83 61 1.0 2.0 0.00 0.00 0.00 79 1014.2
20260904033407 83 25 1.0 2.0 0.00 0.00 0.00 78 1014.3
20260904032903 83 23 2.0 2.0 0.00 0.00 0.00 78 1014.4
20260904032358 83 96 1.0 2.0 0.00 0.00 0.00 77 1014.4
20260904031852 83 72 0.0 2.0 0.00 0.00 0.00 77 1014.2
20260904031347 84 58 1.0 2.0 0.00 0.00 0.00 76 1014.3
20260904030844 84 44 1.0 2.0 0.00 0.00 0.00 75 1014.5
20260904030339 84 81 1.0 2.0 0.00 0.00 0.00 76 1014.5
20260904025835 84 55 0.0 2.0 0.00 0.00 0.00 75 1014.5
20260904025330 84 80 1.0 2.0 0.00 0.00 0.00 75 1014.6
20260904024830 84 103 0.0 2.0 0.00 0.00 0.00 74 1014.4
20260904024325 84 93 2.0 2.0 0.00 0.00 0.00 74 1014.5
20260904023822 84 77 1.0 2.0 0.00 0.00 0.00 74 1014.3
20260904023318 84 59 1.0 2.0 0.00 0.00 0.00 73 1014.3
20260904022816 84 15 0.0 2.0 0.00 0.00 0.00 74 1014.2
20260904022314 85 63 0.0 1.0 0.00 0.00 0.00 72 1014.2
20260904021810 85 76 1.0 2.0 0.00 0.00 0.00 72 1014.2
20260904021310 85 60 1.0 2.0 0.00 0.00 0.00 72 1014.1
20260904020805 85 88 1.0 2.0 0.00 0.00 0.00 71 1014.2
20260904020300 85 38 0.0 2.0 0.00 0.00 0.00 71 1014.1
20260904015758 85 37 0.0 1.0 0.00 0.00 0.00 72 1013.9
20260904015254 86 89 0.0 2.0 0.00 0.00 0.00 70 1013.9
20260904014752 86 73 0.0 1.0 0.00 0.00 0.00 70 1013.9
20260904014248 86 70 0.0 2.0 0.00 0.00 0.00 70 1013.8
20260904013744 86 72 0.0 1.0 0.00 0.00 0.00 69 1013.6
20260904013239 86 40 1.0 2.0 0.00 0.00 0.00 69 1013.8
20260904012735 87 49 0.0 2.0 0.00 0.00 0.00 69 1013.7
20260904012234 87 76 0.0 1.0 0.00 0.00 0.00 69 1013.6
20260904011734 87 46 0.0 2.0 0.00 0.00 0.00 68 1013.6
20260904011230 87 89 0.0 2.0 0.00 0.00 0.00 68 1013.6
20260904010724 87 86 0.0 2.0 0.00 0.00 0.00 67 1013.6
20260904010222 88 76 0.0 1.0 0.00 0.00 0.00 69 1013.6
20260904005721 88 117 0.0 2.0 0.00 0.00 0.00 66 1013.4
20260904005218 88 68 2.0 2.0 0.00 0.00 0.00 65 1013.4
20260904004718 88 28 0.0 2.0 0.00 0.00 0.00 64 1013.4
20260904004213 88 92 0.0 2.0 0.00 0.00 0.00 64 1013.2
20260904003708 88 76 1.0 1.0 0.00 0.00 0.00 62 1013.3
20260904003204 89 61 0.0 1.0 0.00 0.00 0.00 62 1013.3
20260904002700 89 32 0.0 2.0 0.00 0.00 0.00 62 1013.3
20260904002155 89 72 0.0 2.0 0.00 0.00 0.00 61 1013.1
20260904001650 90 75 0.0 2.0 0.00 0.00 0.00 60 1013.0
20260904001149 90 47 0.0 1.0 0.00 0.00 0.00 58 1013.1
20260904000645 91 349 0.0 2.0 0.00 0.00 0.00 57 1012.9
20260904000140 91 323 0.0 2.0 0.00 0.00 0.00 58 1013.1
20260903235639 92 67 0.0 2.0 0.00 0.00 0.00 56 1013.1
20260903235136 92 80 1.0 2.0 0.00 0.00 0.00 56 1013.2
20260903234630 92 60 0.0 2.0 0.00 0.00 0.00 54 1013.0
20260903234126 93 55 0.0 1.0 0.00 0.00 0.00 54 1013.0
20260903233622 93 80 0.0 2.0 0.00 0.00 0.00 49 1012.7
20260903233118 94 29 0.0 1.0 0.00 0.00 0.00 49 1012.9
20260903232612 95 50 0.0 1.0 0.00 0.00 0.00 49 1012.8
20260903232108 95 64 0.0 1.0 0.00 0.00 0.00 50 1012.7
20260903231602 96 57 0.0 1.0 0.00 0.00 0.00 48 1012.7
20260903231102 96 309 0.0 2.0 0.00 0.00 0.00 48 1012.5
20260903230559 97 14 1.0 3.0 0.00 0.00 0.00 43 1012.6
20260903230057 97 107 0.0 2.0 0.00 0.00 0.00 42 1012.5
20260903225554 97 46 2.0 3.0 0.00 0.00 0.00 41 1012.6
20260903225051 97 79 1.0 3.0 0.00 0.00 0.00 42 1012.4
20260903224547 98 86 0.0 2.0 0.00 0.00 0.00 43 1012.4
20260903224043 98 103 0.0 1.0 0.00 0.00 0.00 41 1012.4
20260903223542 98 38 1.0 2.0 0.00 0.00 0.00 40 1012.6
20260903223041 98 56 2.0 3.0 0.00 0.00 0.00 40 1012.5
20260903222537 99 36 2.0 4.0 0.00 0.00 0.00 40 1012.6
20260903222035 100 82 0.0 3.0 0.00 0.00 0.00 39 1012.6
20260903221531 100 315 0.0 2.0 0.00 0.00 0.00 39 1012.4
20260903221028 100 62 1.0 4.0 0.00 0.00 0.00 38 1012.6
20260903220527 100 359 1.0 2.0 0.00 0.00 0.00 41 1012.4
20260903220022 100 41 1.0 4.0 0.00 0.00 0.00 39 1012.6
20260903215521 100 324 1.0 3.0 0.00 0.00 0.00 40 1012.4
20260903215021 100 52 3.0 4.0 0.00 0.00 0.00 38 1012.8
20260903214521 100 101 4.0 4.0 0.00 0.00 0.00 38 1012.5
20260903214021 99 92 2.0 4.0 0.00 0.00 0.00 40 1012.7
20260903213517 98 73 0.0 3.0 0.00 0.00 0.00 42 1012.7
20260903213012 95 31 0.0 3.0 0.00 0.00 0.00 46 1012.7
20260903212508 93 119 0.0 2.0 0.00 0.00 0.00 54 1012.7
20260903212003 95 96 2.0 3.0 0.00 0.00 0.00 53 1012.7
20260903211458 101 91 2.0 4.0 0.00 0.00 0.00 38 1012.8
20260903210955 104 37 2.0 3.0 0.00 0.00 0.00 35 1012.9
20260903210454 105 35 0.0 2.0 0.00 0.00 0.00 35 1013.0
20260903205950 106 22 0.0 2.0 0.00 0.00 0.00 36 1013.2
20260903205450 105 67 0.0 2.0 0.00 0.00 0.00 38 1013.2
20260903204944 104 49 0.0 2.0 0.00 0.00 0.00 36 1013.3
20260903204441 103 252 2.0 2.0 0.00 0.00 0.00 35 1013.2